Weather History for KDVT - September, 2013

Change the Weather History Date:

Thursday, September 19, 2013

  Actual Average Record
Temperature  
Mean Temperature 85 °F -  
Max Temperature 97 °F 94 °F 106 °F (2010)
Min Temperature 73 °F 73 °F 68 °F (2006)
Cooling Degree Days 20    
Growing Degree Days 35 (Base 50)    
Moisture  
Dew Point 39 °F    
Average Humidity 21    
Maximum Humidity 36    
Minimum Humidity 10    
Precipitation  
Precipitation 0.00 in - - ()
Sea Level Pressure  
Sea Level Pressure 29.67 in    
Wind  
Wind Speed 3 mph (WNW)    
Max Wind Speed 9 mph    
Max Gust Speed -    
Visibility 10 miles    
Events      
Averages and records for this station are not official NWS values.
T = Trace of Precipitation, MM = Missing Value Source: NWS Daily Summary

Daily Weather History Graph

Daily Weather History Graph

Search for Another Location

Airport or City:

Trip Planner

Search our weather history database for the weather conditions in past years. The results will help you decide how hot, cold, wet, or windy it might be!

Date:

Astronomy

Sep. 19, 2013 Rise Set
Actual Time 6:14 AM MST 6:28 PM MST
Civil Twilight 5:49 AM MST 6:53 PM MST
Nautical Twilight 5:20 AM MST 7:22 PM MST
Astronomical Twilight 4:51 AM MST 7:52 PM MST
Moon 6:33 PM MST (9/19) 6:25 AM MST (9/19)
Length of Visible Light 13h 03m
Length of Day
12h 14m
Full, 100% of the Moon is Illuminated
Sep 19
Full
Sep 26
Last Quarter
Oct 4
New
Oct 11
First Quarter
Oct 18
Full

Hourly Weather History & Observations

Time (MST) Temp. Dew Point Humidity Pressure Visibility Wind Dir Wind Speed Gust Speed Precip Events Conditions
12:53 AM 77.0 °F 46.0 °F 33% 29.65 in 10.0 mi Calm Calm - N/A   Clear
1:53 AM 75.0 °F 46.0 °F 36% 29.65 in 10.0 mi Calm Calm - N/A   Clear
2:53 AM 75.9 °F 46.0 °F 35% 29.64 in 10.0 mi Calm Calm - N/A   Clear
3:53 AM 73.9 °F 45.0 °F 35% 29.65 in 10.0 mi Calm Calm - N/A   Clear
4:53 AM 75.9 °F 42.1 °F 30% 29.66 in 10.0 mi NNE 8.1 mph - N/A   Clear
5:53 AM 75.9 °F 41.0 °F 29% 29.67 in 10.0 mi NNE 9.2 mph - N/A   Clear
6:53 AM 73.9 °F 45.0 °F 35% 29.70 in 10.0 mi Calm Calm - N/A   Clear
7:53 AM 79.0 °F 45.0 °F 30% 29.70 in 10.0 mi Calm Calm - N/A   Clear
8:53 AM 82.9 °F 42.1 °F 24% 29.71 in 10.0 mi Calm Calm - N/A   Clear
9:53 AM 87.1 °F 42.1 °F 21% 29.72 in 10.0 mi SW 3.5 mph - N/A   Clear
10:53 AM 90.0 °F 42.1 °F 19% 29.71 in 10.0 mi South 3.5 mph - N/A   Clear
11:53 AM 93.9 °F 37.9 °F 14% 29.70 in 10.0 mi Variable 4.6 mph - N/A   Clear
12:53 PM 95.0 °F 37.9 °F 14% 29.68 in 10.0 mi SW 8.1 mph - N/A   Clear
1:53 PM 96.1 °F 33.1 °F 11% 29.66 in 10.0 mi SSW 3.5 mph - N/A   Clear
2:53 PM 96.1 °F 34.0 °F 11% 29.64 in 10.0 mi WNW 5.8 mph - N/A   Clear
3:53 PM 97.0 °F 33.1 °F 11% 29.63 in 10.0 mi West 6.9 mph - N/A   Clear
4:53 PM 96.1 °F 30.9 °F 10% 29.62 in 10.0 mi West 9.2 mph - N/A   Clear
5:53 PM 93.9 °F 30.9 °F 11% 29.62 in 10.0 mi West 5.8 mph - N/A   Clear
6:53 PM 90.0 °F 32.0 °F 13% 29.63 in 10.0 mi West 5.8 mph - N/A   Clear
7:53 PM 87.1 °F 35.1 °F 16% 29.65 in 10.0 mi Calm Calm - N/A   Clear
8:53 PM 84.9 °F 35.1 °F 17% 29.67 in 10.0 mi North 3.5 mph - N/A   Clear
9:53 PM 82.9 °F 36.0 °F 19% 29.67 in 10.0 mi NNE 6.9 mph - N/A   Clear
10:53 PM 82.0 °F 34.0 °F 18% 29.67 in 10.0 mi NNE 8.1 mph - N/A   Clear
11:53 PM 79.0 °F 36.0 °F 21% 29.68 in 10.0 mi Variable 3.5 mph - N/A   Clear